Home   Weather   Behbahan   Past weeks

Flag for Iran Past Weather in Behbahan, Iran — Yesterday and Last 2 Weeks

Now
48 °F

Clear.


Feels Like: 48 °F
Forecast: 42 / 70 °F
Wind: No wind

Location: Gach Saran Du Gunbadan

Current Time: Feb 21, 2017 at 10:36:58 pm

Latest Report: Feb 21, 2017 at 9:30 pm


Visibility: 10 mi

Pressure: 30.07 "Hg

Humidity: 62%

Dew Point: 36 °F

Location of BehbahanLocation

Past Weather in Behbahan — Graph

°F

Behbahan Temperature Yesterday

Maximum temperature yesterday: 63 °F (at 12:30 pm)
Minimum temperature yesterday: 36 °F (at 4:30 am)
Average temperature yesterday: 49 °F

High & Low Weather Summary for the Past Weeks

 TemperatureHumidityPressure
High72 °F (Feb 8, 3:30 pm)100% (Feb 13, 5:30 pm)30.33 "Hg (Feb 13, 5:30 pm)
Low32 °F (Feb 19, 5:30 am)12% (Feb 8, 1:30 pm)29.83 "Hg (Feb 17, 1:30 pm)
Average54 °F61%30.09 "Hg
* Reported Feb 6 9:30 pm — Feb 21 9:30 pm, Behbahan, Weather by CustomWeather, © 2017

Note: Actual official high and low records may vary slightly from our data, if they occured in-between our weather recording intervals... More about our weather records

Advertising

Behbahan Weather History for the Previous 24 Hours

Scroll right to see more
 ConditionsComfort  
Time TempWeatherWind HumidityBarometerVisibility
9:30 pm
Tue, Feb 21
48 °FClear.No wind62%30.07 "Hg10 mi
8:30 pm50 °FClear.No wind58%30.04 "Hg10 mi
7:30 pm54 °FClear.No wind54%30.04 "Hg10 mi
6:30 pm55 °FClear.No wind47%30.04 "Hg10 mi
5:30 pm59 °FSunny.5 mph42%30.01 "Hg10 mi
4:30 pm61 °FSunny.7 mph39%30.01 "Hg10 mi
3:30 pm63 °FSunny.7 mph37%30.01 "Hg10 mi
2:30 pm64 °FSunny.5 mph32%30.01 "Hg10 mi
1:30 pm64 °FSunny.No wind30%30.04 "Hg10 mi
12:30 pm63 °FSunny.No wind37%30.07 "Hg10 mi
11:30 am61 °FSunny.5 mph39%30.09 "Hg10 mi
10:30 am55 °FSunny.5 mph55%30.09 "Hg10 mi
9:30 am54 °FSunny.No wind58%30.12 "Hg10 mi
8:30 am48 °FSunny.No wind76%30.12 "Hg10 mi
7:30 am41 °FSunny.No wind87%30.09 "Hg10 mi
6:30 am37 °FClear.No wind87%30.07 "Hg10 mi
5:30 am37 °FClear.No wind87%30.07 "Hg5 mi
4:30 am39 °FClear.No wind81%30.07 "Hg5 mi
3:30 am39 °FClear.No wind81%30.07 "Hg5 mi
2:30 am39 °FClear.No wind81%30.07 "Hg5 mi
1:30 am41 °FClear.No wind81%30.09 "Hg5 mi
12:30 am43 °FClear.No wind76%30.09 "Hg5 mi
11:30 pm
Mon, Feb 20
45 °FClear.No wind66%30.12 "Hg5 mi
10:30 pm46 °FClear.No wind66%30.12 "Hg5 mi
Weather by CustomWeather, © 2017

See weather overviewHow to use our weather pages